Meteopurmerend
purmerend
Purmerend - Baaienwijk



My webcam  My webcam


waarschuwing voor Onweer Meer informatie blitzortung!


Regen radar Meer informatie rain snow radar


Bezoek onze andere website:

CandyAppleRed WebdesignWebdesign Purmerend Candy Apple Red

MeteopurmerendBlog

Template documentation
and downloads



Onweer van: 26-07-2021 15:00 tot: 21:00 waarschuwing voor: Onweer niveau: Geel info button
Enkele onweersbuien, lokaal met hagel en veel neerslag in korte tijd.Kans op blikseminslag, hagel en veel neerslag in korte tijd.Verkeer en buitenactiviteiten kunnen hinder ondervinden.Mijd open water en open gebied, schuil niet onder bomen.Volg weerberichten en waarschuwingen.

15 daagse weersverwachting Hallein (AT)

  • Overzicht
  • Per uur
  • 15 dagen
  • Extra
  • Vergelijk
  • Kaarten
  • Dagkaart
  • Meer »
  • Info
  • Statistieken
  • Directe link
    Temp 6h Neerslag Wind  
 05:40     20:50    Daglengte: 15:10 Vandaag
20:00
21°
6.0 mm
2
 05:41     20:48    Daglengte: 15:07 Morgen
02:00
17°
24.0 mm
1
08:00
18°
8.2 mm
1
14:00
23°
 
2
20:00
22°
 
1
 05:42     20:47    Daglengte: 15:05 Woensdag 28 Jul
02:00
18°
 
1
08:00
18°
12.9 mm
2
warningclass
14:00
20°
23.6 mm
2
20:00
18°
29.6 mm
1
 05:43     20:46    Daglengte: 15:03 Donderdag 29 Jul
02:00
16°
 
2
08:00
18°
 
2
14:00
23°
 
2
Locatie info
Region: Salzburg
Latitude: 47.6815°N
Longitude: 13.0926°E
447 masl
Postcode: 5400
Temp/Neerslag /Baro Onweer/Dauwpunt
    Temp Baro 1h Neerslag Dauwpunt Wind UV Bewolking  
 05:40     20:50    Daglengte: 15:10 Vandaag
17:00
23°
1012.3 hPa
49%
20.1°
1
Windvlaag: 2.4 m/s
24%
18:00
23°
1012.2 hPa 1.5 mm
82%
16.9°
1
Windvlaag: 0.4 m/s
24%
19:00
22°
1012.4 hPa 2.3 mm
80%
14.3°
2
Windvlaag: 0.6 m/s
39%
20:00
21°
1013.1 hPa 2.2 mm
80%
18.9°
2
Windvlaag: 1.1 m/s
51%
21:00
20°
1014.0 hPa 3.0 mm
82%
19.3°
1
Windvlaag: 3 m/s
71% warningclass
22:00
19°
1014.7 hPa 4.5 mm
81%
18.6°
1
Windvlaag: 2.4 m/s
83% warningclass
23:00
19°
1015.3 hPa 3.7 mm
78%
18.1°
1
Windvlaag: 1.9 m/s
67%
 05:41     20:48    Daglengte: 15:07 Morgen
00:00
18°
1015.8 hPa 3.7 mm
79%
17.4°
1
Windvlaag: 4.2 m/s
66%
01:00
17°
1015.9 hPa 4.7 mm
82%
17.0°
1
Windvlaag: 3.3 m/s
62%
02:00
17°
1015.9 hPa 4.4 mm
82%
16.1°
1
Windvlaag: 2.8 m/s
72%
03:00
17°
1016.1 hPa 4.0 mm
81%
15.6°
1
Windvlaag: 3.8 m/s
75%
04:00
16°
1016.3 hPa 4.1 mm
75%
15.3°
1
Windvlaag: 4.3 m/s
72%
05:00
16°
1016.4 hPa
74%
15.1°
1
Windvlaag: 3.1 m/s
80%
06:00
16°
1016.6 hPa
23%
15.2°
1
Windvlaag: 2.8 m/s
76%
07:00
17°
1017.0 hPa
19%
15.7°
1
Windvlaag: 2.5 m/s
71%
08:00
18°
1017.0 hPa
18%
16.8°
1
Windvlaag: 1.9 m/s
83%
09:00
19°
1016.9 hPa
63%
17.5°
1
Windvlaag: 0.6 m/s
57%
10:00
20°
1016.6 hPa
24%
18.0°
1
Windvlaag: -1.4 m/s
38%
11:00
21°
1016.2 hPa
22%
16.6°
1
Windvlaag: -3.8 m/s
42%
12:00
22°
1016.1 hPa
31%
14.2°
2
Windvlaag: -4 m/s
29%
13:00
23°
1015.4 hPa
32%
15.6°
2
Windvlaag: -3.5 m/s
40%
14:00
23°
1014.8 hPa
33%
16.0°
2
Windvlaag: -3 m/s
25%
15:00
24°
1014.3 hPa
33%
16.0°
2
Windvlaag: -2.8 m/s
26%
16:00
24°
1014.0 hPa
66%
21.2°
1
Windvlaag: -2.5 m/s
34%
17:00
23°
1013.9 hPa
67%
21.5°
1
Windvlaag: -1.2 m/s
43%
18:00
23°
1013.8 hPa
45%
21.3°
1
Windvlaag: -0.5 m/s
28%
19:00
23°
1013.8 hPa
75%
21.1°
1
Windvlaag: 0.2 m/s
48%
20:00
22°
1014.2 hPa
21%
20.8°
1
Windvlaag: -0.8 m/s
49%
21:00
20°
1014.8 hPa
16%
19.8°
1
Windvlaag: 1.1 m/s
42%
22:00
20°
1015.1 hPa
14%
19.0°
1
Windvlaag: 2 m/s
19%
23:00
19°
1015.3 hPa
16%
18.3°
1
Windvlaag: 3.2 m/s
66%
 05:42     20:47    Daglengte: 15:05 Woensdag 28 Jul
00:00
19°
1015.4 hPa
14%
17.7°
2
Windvlaag: 3.2 m/s
76%
01:00
18°
1015.1 hPa
16%
17.6°
2
Windvlaag: 2.8 m/s
57%
02:00
18°
1014.7 hPa
14%
17.4°
1
Windvlaag: 1.6 m/s
53%
03:00
17°
1014.7 hPa
14%
16.9°
1
Windvlaag: 1.7 m/s
51%
04:00
17°
1014.5 hPa
14%
16.4°
1
Windvlaag: 2.6 m/s
58%
05:00
17°
1014.5 hPa
14%
15.9°
2
Windvlaag: 2.5 m/s
60%
06:00
17°
1015.0 hPa 4.1 mm
69%
15.3°
2
Windvlaag: 2.7 m/s
78%
07:00
17°
1015.7 hPa 4.4 mm
72%
15.7°
2
Windvlaag: 3.1 m/s
70% warningclass
08:00
18°
1016.2 hPa 4.4 mm
72%
16.6°
2
Windvlaag: 2.7 m/s
78% warningclass
09:00
19°
1016.3 hPa 4.3 mm
74%
17.4°
2
Windvlaag: 1.4 m/s
85%
10:00
19°
1015.9 hPa
73%
15.2°
1
Windvlaag: 0.5 m/s
84%
11:00
19°
1015.9 hPa 7.6 mm
50%
15.5°
2
Windvlaag: -2.5 m/s
100%
12:00
19°
1015.7 hPa 4.1 mm
97%
14.4°
2
Windvlaag: -3.2 m/s
100%
13:00
20°
1015.4 hPa 3.8 mm
100%
14.0°
2
Windvlaag: -2.6 m/s
100%
14:00
20°
1015.4 hPa 3.8 mm
100%
14.8°
2
Windvlaag: -1 m/s
98%
15:00
19°
1015.7 hPa 4.5 mm
99%
16.6°
2
Windvlaag: -1.1 m/s
98%
16:00
19°
1016.1 hPa 4.5 mm
100%
16.2°
2
Windvlaag: -0.8 m/s
99%
17:00
19°
1016.4 hPa 4.6 mm
100%
16.7°
2
Windvlaag: -0.2 m/s
98%
18:00
18°
1016.4 hPa 8.6 mm
100%
15.3°
2
Windvlaag: -1 m/s
100%
19:00
18°
1016.2 hPa 7.4 mm
100%
13.4°
2
Windvlaag: -1.7 m/s
96%
20:00
18°
1016.2 hPa
30%
15.3°
1
Windvlaag: 1.3 m/s
86%
21:00
17°
1016.3 hPa
22%
14.4°
1
Windvlaag: 2.4 m/s
70%
22:00
17°
1016.5 hPa
21%
13.2°
2
Windvlaag: 2.8 m/s
72%
23:00
17°
1016.4 hPa
21%
13.0°
1
Windvlaag: 2.7 m/s
55%
 05:43     20:46    Daglengte: 15:03 Donderdag 29 Jul
00:00
17°
1016.1 hPa
22%
12.2°
2
Windvlaag: 2.5 m/s
43%
01:00
16°
1015.8 hPa
22%
12.0°
2
Windvlaag: 2.1 m/s
33%
02:00
16°
1015.3 hPa
21%
11.3°
2
Windvlaag: 2.3 m/s
24%
03:00
16°
1015.2 hPa
21%
11.1°
2
Windvlaag: 1.8 m/s
32%
04:00
16°
1015.2 hPa
22%
10.4°
2
Windvlaag: 1.6 m/s
30%
05:00
16°
1015.2 hPa
22%
10.5°
2
Windvlaag: 1.7 m/s
29%
06:00
16°
1015.4 hPa
21%
10.6°
2
Windvlaag: 1.9 m/s
28%
07:00
16°
1015.5 hPa
22%
10.9°
2
Windvlaag: 2 m/s
37%
08:00
18°
1015.4 hPa
21%
11.7°
2
Windvlaag: 1.9 m/s
29%
09:00
20°
1015.5 hPa
21%
14.1°
1
Windvlaag: 2.2 m/s
5%
10:00
21°
1015.2 hPa
21%
14.2°
1
Windvlaag: 3.4 m/s
2%
11:00
22°
1015.1 hPa
21%
13.8°
1
Windvlaag: 4 m/s
5%
12:00
22°
1014.9 hPa
21%
14.8°
2
Windvlaag: 3.1 m/s
19%
13:00
23°
1014.6 hPa
21%
15.0°
2
Windvlaag: 3 m/s
32%
14:00
23°
1014.3 hPa
22%
15.3°
2
Windvlaag: 3.4 m/s
33%
Temp/Neerslag /Baro Onweer/Dauwpunt
    Temp Baro Neerslag Dauwpunt Wind Bewolking  
 05:40     20:50    Daglengte: 15:10 Vandaag
17:00
23°
1012.3 hPa   20.1°
1
24%
20:00
21°
1013.1 hPa 6.0 mm 18.9°
2
51%
23:00
19°
1015.3 hPa 11.2 mm 18.1°
1
67%
 05:41     20:48    Daglengte: 15:07 Morgen
02:00
17°
1015.9 hPa 12.8 mm 16.1°
1
72%
05:00
16°
1016.4 hPa 8.2 mm 15.1°
1
80%
08:00
18°
1017.0 hPa   16.8°
1
83%
11:00
21°
1016.2 hPa   16.6°
1
42%
14:00
23°
1014.8 hPa   16.0°
2
25%
17:00
23°
1013.9 hPa   21.5°
1
43%
20:00
22°
1014.2 hPa   20.8°
1
49%
23:00
19°
1015.3 hPa   18.3°
1
66%
 05:42     20:47    Daglengte: 15:05 Woensdag 28 Jul
02:00
18°
1014.7 hPa   17.4°
1
53%
05:00
17°
1014.5 hPa   15.9°
2
60%
08:00
18°
1016.2 hPa 12.9 mm 16.6°
2
78% warningclass
11:00
19°
1015.9 hPa 11.9 mm 15.5°
2
100%
14:00
20°
1015.4 hPa 11.7 mm 14.8°
2
98%
17:00
19°
1016.4 hPa 13.6 mm 16.7°
2
98%
20:00
18°
1016.2 hPa 16.0 mm 15.3°
1
86%
23:00
17°
1016.4 hPa   13.0°
1
55%
 05:43     20:46    Daglengte: 15:03 Donderdag 29 Jul
02:00
16°
1015.3 hPa   11.3°
2
24%
05:00
16°
1015.2 hPa   10.5°
2
29%
08:00
18°
1015.4 hPa   11.7°
2
29%
11:00
22°
1015.1 hPa   13.8°
1
5%
14:00
23°
1014.3 hPa   15.3°
2
33%
17:00
26°
1013.5 hPa 30.4 mm 17.7°
2
0%
20:00
21°
1014.9 hPa 30.8 mm 19.6°
2
0%
23:00
18°
1015.7 hPa 31.1 mm 17.5°
1
0%
 05:44     20:44    Daglengte: 15:00 Vrijdag 30 Jul
02:00
18°
1015.2 hPa 32.9 mm 16.9°
2
1%
05:00
17°
1014.4 hPa 34.9 mm 16.8°
1
1%
08:00
19°
1015.1 hPa 36.2 mm 18.6°
1
1%
11:00
20°
1014.7 hPa 36.7 mm 19.8°
1
1%
14:00
25°
1012.5 hPa 37.4 mm 19.3°
1
1%
17:00
26°
1011.4 hPa 38.1 mm 18.7°
1
1%
20:00
22°
1010.9 hPa 38.1 mm 20.4°
1
0%
23:00
20°
1012.0 hPa 38.8 mm 18.5°
2
1%
 05:46     20:43    Daglengte: 14:57 Zaterdag 31 Jul
02:00
18°
1011.9 hPa 39.4 mm 16.7°
2
1%
05:00
17°
1011.9 hPa 40.4 mm 16.2°
1
1%
08:00
19°
1011.5 hPa 40.8 mm 17.6°
1
1%
11:00
24°
1010.6 hPa 40.8 mm 18.5°
2
1%
14:00
23°
1010.2 hPa 41.8 mm 19.7°
3
1%
17:00
21°
1010.3 hPa 46.2 mm 19.7°
2
1%
20:00
20°
1010.9 hPa 49.4 mm 18.4°
1
1%
23:00
18°
1012.7 hPa 52.5 mm 17.7°
1
1%
 05:47     20:42    Daglengte: 14:55 Zondag 01 Aug
02:00
17°
1011.9 hPa 56.0 mm 17.4°
1
1%
05:00
16°
1011.0 hPa 67.7 mm 16.4°
1
1%
08:00
15°
1011.4 hPa 72.7 mm 14.5°
2
1%
11:00
14°
1010.9 hPa 74.8 mm 14.2°
2
1%
14:00
13°
1013.3 hPa 82.2 mm 13.0°
2
1%
17:00
14°
1014.3 hPa 89.2 mm 12.8°
2
1%
20:00
14°
1013.2 hPa 89.5 mm 12.3°
2
1%
23:00
11°
1015.5 hPa 89.5 mm 9.5°
3
0%
 05:48     20:40    Daglengte: 14:52 Maandag 02 Aug
02:00
12°
1015.8 hPa 89.5 mm 9.3°
2
0%
05:00
11°
1016.5 hPa 89.5 mm 9.1°
1
1%
08:00
14°
1017.1 hPa 89.5 mm 10.8°
0
1%
11:00
19°
1016.7 hPa 89.5 mm 11.7°
1
1%
14:00
20°
1016.4 hPa 179.4 mm 13.6°
2
1%
20:00
16°
1017.5 hPa 180.5 mm 13.5°
1
1%
 05:50     20:39    Daglengte: 14:49 Dinsdag 03 Aug
02:00
15°
1018.4 hPa 180.7 mm 11.8°
2
1%
08:00
17°
1018.0 hPa 180.7 mm 13.4°
0
1%
14:00
20°
1018.2 hPa 185.1 mm 16.1°
1
1%
20:00
17°
1019.6 hPa 190.0 mm 15.3°
1
0%
 05:51     20:37    Daglengte: 14:46 Woensdag 04 Aug
02:00
14°
1020.4 hPa 191.2 mm 12.4°
2
0%
08:00
17°
1018.8 hPa 191.2 mm 15.1°
2
0%
14:00
27°
1015.7 hPa 191.2 mm 15.8°
2
0%
20:00
21°
1015.0 hPa 191.2 mm 18.1°
0
1%
 05:52     20:36    Daglengte: 14:44 Donderdag 05 Aug
02:00
17°
1016.5 hPa 192.5 mm 15.3°
3
1%
08:00
19°
1015.1 hPa 194.3 mm 17.2°
2
1%
14:00
23°
1013.6 hPa 1.3 mm 15.2°
1
50%
20:00
18°
1012.9 hPa 3.3 mm 15.8°
0
68%
 05:53     20:34    Daglengte: 14:41 Vrijdag 06 Aug
02:00
14°
1013.2 hPa 2.6 mm 13.5°
1
78%
08:00
16°
1011.8 hPa 1.6 mm 14.1°
1
81%
14:00
20°
1010.2 hPa 2.3 mm 15.6°
1
78%
20:00
16°
1010.0 hPa 4.1 mm 14.5°
1
79%
 05:55     20:33    Daglengte: 14:38 Zaterdag 07 Aug
02:00
14°
1011.1 hPa 3.0 mm 12.6°
1
90%
08:00
14°
1011.0 hPa 2.3 mm 13.0°
1
84%
14:00
18°
1010.4 hPa 3.1 mm 13.8°
2
78%
20:00
15°
1011.2 hPa 3.4 mm 13.1°
1
80%
 05:56     20:31    Daglengte: 14:35 Zondag 08 Aug
02:00
12°
1013.5 hPa 2.9 mm 10.9°
2
75%
08:00
13°
1014.3 hPa 2.8 mm 11.9°
1
78%
14:00
18°
1013.9 hPa 2.3 mm 12.9°
2
72%
20:00
15°
1015.2 hPa 2.7 mm 12.9°
1
70%
 05:57     20:29    Daglengte: 14:32 Maandag 09 Aug
02:00
12°
1017.6 hPa 2.2 mm 10.9°
2
61%
08:00
14°
1017.6 hPa 1.2 mm 12.3°
1
58%
14:00
20°
1016.7 hPa 1.5 mm 13.5°
1
55%
20:00
16°
1017.3 hPa 1.2 mm 13.8°
0
62%
 05:59     20:28    Daglengte: 14:29 Dinsdag 10 Aug
02:00
13°
1019.4 hPa 0.9 mm 11.6°
1
59%
08:00
14°
1019.4 hPa 0.7 mm 12.6°
1
54%
14:00
21°
1018.0 hPa 0.4 mm 13.6°
2
53%
  CAPE Lifted Index Hail Supercell Tornado SRH 3km CL BTM PRES CL TOP PRES Swiss DWD icon SMHI TS
 05:40     20:50    Daglengte: 15:10 Vandaag
17:00 85 J/kg 0.5 K 0 % 0 % 0 % 0 m²/s² 0 0 0.5 3
18:00 10 J/kg 0.7 K 0 % 0 % 0 % 0 m²/s² 0 0 1.09 3
19:00 0 J/kg -0.7 K 0 % 0 % 0 % 0 m²/s² 0 0 -0.22 80
20:00 6 J/kg -0.4 K 0 % 0 % 0 % 0 m²/s² 0 0 -0.37 3
21:00 78 J/kg 0.6 K 0 % 0 % 0 % 0 m²/s² 0 0 0.72 95
22:00 0 J/kg 1.1 K 0 % 0 % 0 % 0 m²/s² 0 0 2.06 95
23:00 0 J/kg -0.3 K 0 % 0 % 0 % 0 m²/s² 0 0 -0.21 3
 05:41     20:48    Daglengte: 15:07 Morgen
00:00 8 J/kg 0.9 K 0 % 0 % 0 % 0 m²/s² 0 0 1.08 80
01:00 0 J/kg 0.7 K 0 % 0 % 0 % 0 m²/s² 0 0 1.24 80
02:00 0 J/kg 0.5 K 0 % 0 % 0 % 0 m²/s² 0 0 1.73 80
03:00 0 J/kg 0.2 K 0 % 0 % 0 % 0 m²/s² 0 0 1.76 3
04:00 0 J/kg -0.1 K 0 % 0 % 0 % 0 m²/s² 0 0 1.82 3
05:00 0 J/kg -0.1 K 0 % 0 % 0 % 0 m²/s² 0 0 2.54 45
06:00 0 J/kg 0.3 K 0 % 0 % 0 % 0 m²/s² 0 0 2.91 3
07:00 0 J/kg 1.1 K 0 % 0 % 0 % 0 m²/s² 0 0 3.95 3
08:00 0 J/kg 1.8 K 0 % 0 % 0 % 0 m²/s² 0 0 4.92 45
09:00 0 J/kg 0.9 K 0 % 0 % 0 % 0 m²/s² 0 0 4.38 3
10:00 0 J/kg 0.1 K 0 % 0 % 0 % 0 m²/s² 0 0 3.97 3
11:00 71 J/kg -0.6 K 0 % 0 % 0 % 0 m²/s² 0 0 2.79 3
12:00 202 J/kg -1.4 K 0 % 0 % 0 % 0 m²/s² 0 0 1.24 3
13:00 377 J/kg -2.4 K 0 % 0 % 0 % 0 m²/s² 0 0 -0.66 3
14:00 565 J/kg -3.2 K 0 % 0 % 0 % 0 m²/s² 0 0 -1.28 2
15:00 929 J/kg -4.3 K 0 % 0 % 0 % 0 m²/s² 0 0 -2.23 2
16:00 1359 J/kg -5.1 K 0 % 0 % 0 % 0 m²/s² 0 0 -4.08 2
17:00 1649 J/kg -5.3 K 0 % 0 % 0 % 0 m²/s² 0 0 -4.85 3
18:00 1860 J/kg -6.0 K 0 % 0 % 0 % 0 m²/s² 0 0 -5.19 3
19:00 1447 J/kg -5.6 K 0 % 0 % 0 % 0 m²/s² 0 0 -4.79 3
20:00 1198 J/kg -5.3 K 0 % 0 % 0 % 0 m²/s² 0 0 -4.37 3
21:00 1061 J/kg -4.6 K 0 % 0 % 0 % 0 m²/s² 0 0 -3.52 3
22:00 575 J/kg -2.7 K 0 % 0 % 0 % 0 m²/s² 0 0 -1.59 1
23:00 170 J/kg -2.3 K 0 % 0 % 0 % 0 m²/s² 0 0 -1.43 3
 05:42     20:47    Daglengte: 15:05 Woensdag 28 Jul
00:00 199 J/kg -2.9 K 0 % 0 % 0 % 0 m²/s² 0 0 -2.21 3
01:00 116 J/kg -3.0 K 0 % 0 % 0 % 0 m²/s² 0 0 -2.19 3
02:00 0 J/kg -2.0 K 0 % 0 % 0 % 0 m²/s² 0 0 -1.07 3
03:00 0 J/kg -1.9 K 0 % 0 % 0 % 0 m²/s² 0 0 -1.33 3
04:00 0 J/kg -1.1 K 0 % 0 % 0 % 0 m²/s² 0 0 -0.32 3
05:00 0 J/kg -0.2 K 0 % 0 % 0 % 0 m²/s² 0 0 0.67 3
06:00 0 J/kg 0.4 K 0 % 0 % 0 % 0 m²/s² 0 0 1.33 3
07:00 0 J/kg 0.1 K 0 % 0 % 0 % 0 m²/s² 0 0 1.12 95
08:00 82 J/kg -0.6 K 0 % 0 % 0 % 0 m²/s² 0 0 0.3 95
09:00 251 J/kg -1.0 K 0 % 0 % 0 % 0 m²/s² 0 0 0.38 3
10:00 406 J/kg -1.7 K 0 % 0 % 0 % 0 m²/s² 0 0 0.16 3
11:00 519 J/kg -1.7 K 0 % 0 % 0 % 0 m²/s² 0 0 -0.14 3
12:00 419 J/kg -1.5 K 0 % 0 % 0 % 0 m²/s² 0 0 0.18 80
13:00 188 J/kg -1.6 K 0 % 0 % 0 % 0 m²/s² 0 0 -0.1 3
14:00 271 J/kg -1.7 K 0 % 0 % 0 % 0 m²/s² 0 0 -1.61 3
15:00 2 J/kg -1.5 K 0 % 0 % 0 % 0 m²/s² 0 0 -1.32 3
16:00 46 J/kg -0.2 K 0 % 0 % 0 % 0 m²/s² 0 0 -0.08 80
17:00 4 J/kg -3.4 K 0 % 0 % 0 % 0 m²/s² 0 0 -2.41 80
18:00 57 J/kg -1.7 K 0 % 0 % 0 % 0 m²/s² 0 0 -1.34 3
19:00 259 J/kg -1.6 K 0 % 0 % 0 % 0 m²/s² 0 0 -0.79 3
20:00 274 J/kg -1.8 K 0 % 0 % 0 % 0 m²/s² 0 0 -1.02 2
21:00 70 J/kg -1.7 K 0 % 0 % 0 % 0 m²/s² 0 0 -0.98 2
22:00 0 J/kg -1.8 K 0 % 0 % 0 % 0 m²/s² 0 0 -1.5 2
23:00 0 J/kg -1.5 K 0 % 0 % 0 % 0 m²/s² 0 0 -0.9 2
 05:43     20:46    Daglengte: 15:03 Donderdag 29 Jul
00:00 0 J/kg -1.6 K 0 % 0 % 0 % 0 m²/s² 0 0 -0.76 2
01:00 0 J/kg -1.5 K 0 % 0 % 0 % 0 m²/s² 0 0 -0.72 2
02:00 0 J/kg -1.7 K 0 % 0 % 0 % 0 m²/s² 0 0 -1.34 2
03:00 0 J/kg -1.8 K 0 % 0 % 0 % 0 m²/s² 0 0 -1.59 2
04:00 0 J/kg -1.5 K 0 % 0 % 0 % 0 m²/s² 0 0 -0.66 2
05:00 0 J/kg -1.4 K 0 % 0 % 0 % 0 m²/s² 0 0 -0.41 2
06:00 0 J/kg -1.4 K 0 % 0 % 0 % 0 m²/s² 0 0 -0.47 2
07:00 0 J/kg -1.2 K 0 % 0 % 0 % 0 m²/s² 0 0 -0.18 2
08:00 104 J/kg -1.0 K 0 % 0 % 0 % 0 m²/s² 0 0 0.23 2
09:00 266 J/kg -1.8 K 0 % 0 % 0 % 0 m²/s² 0 0 -0.33 1
10:00 590 J/kg -2.6 K 0 % 0 % 0 % 0 m²/s² 0 0 -1.07 1
11:00 859 J/kg -2.9 K 0 % 0 % 0 % 0 m²/s² 0 0 -1.43 1
12:00 1195 J/kg -3.4 K 0 % 0 % 0 % 0 m²/s² 0 0 -2.32 1
13:00 1291 J/kg -3.7 K 0 % 0 % 0 % 0 m²/s² 0 0 -2.47 2
14:00 1294 J/kg -3.9 K 0 % 0 % 0 % 0 m²/s² 0 0 -2.91 2
Temp Baro Wind Neerslag
  EWN Forecast EWN WRFDA DWD ICON FMI HIRLAM MET Norway GFS
 05:40     20:50    Daglengte: 15:10 Vandaag
17:00 23.0° 1012.3 hPa 1.3 m/s 0.0 mm 18.8° 1013.3 hPa 3.6 m/s 6.6 mm 21.0° 1012.5 hPa 1.0 m/s -0.1 mm 26.5° 1011.4 hPa 0.6 m/s 0.0 mm 23.6° 1012.0 hPa 0.8 m/s
20:00 21.0° 1013.1 hPa 2.1 m/s 6.0 mm 19.3° 1012.9 hPa 1.2 m/s 20.8 mm 18.8° 1013.3 hPa 0.3 m/s 2.9 mm 23.2° 1012.5 hPa 2.9 m/s 0.0 mm 20.5° 1012.6 hPa 1.5 m/s
23:00 18.6° 1015.3 hPa 1.3 m/s 11.2 mm 17.8° 1014.1 hPa 4.2 m/s 33.6 mm 17.1° 1015.6 hPa 0.9 m/s 6.1 mm 18.8° 1015.2 hPa 0.9 m/s 0.0 mm 17.3° 1016.3 hPa 1.2 m/s
 05:41     20:48    Daglengte: 15:07 Morgen
02:00 16.8° 1015.9 hPa 1.3 m/s 12.8 mm 17.2° 1013.2 hPa 3.8 m/s 47.7 mm 16.3° 1016.4 hPa 0.9 m/s 2.9 mm 16.6° 1016.0 hPa 0.8 m/s 0.0 mm 17.6° 1017.1 hPa 1.9 m/s
05:00 16.0° 1016.4 hPa 1.3 m/s 8.2 mm 16.6° 1013.8 hPa 3.9 m/s 50.3 mm 15.8° 1016.5 hPa 1.0 m/s 1.1 mm 15.1° 1016.8 hPa 0.9 m/s 0.0 mm 17.0° 1016.4 hPa 0.5 m/s
08:00 17.8° 1017.0 hPa 1.0 m/s 0.0 mm 18.6° 1016.0 hPa 2.0 m/s 50.3 mm 17.1° 1017.2 hPa 0.3 m/s 0.0 mm 17.8° 1017.0 hPa 0.8 m/s 0.0 mm 18.7° 1016.7 hPa 0.3 m/s
11:00 21.3° 1016.2 hPa 1.1 m/s 0.0 mm 22.0° 1015.2 hPa 1.5 m/s 50.3 mm 19.5° 1016.9 hPa 0.4 m/s 0.1 mm 24.0° 1015.4 hPa 0.9 m/s 0.0 mm 23.0° 1015.8 hPa 1.5 m/s
14:00 23.3° 1014.8 hPa 1.9 m/s 0.0 mm 24.5° 1014.0 hPa 2.4 m/s 50.3 mm 22.1° 1015.4 hPa 0.7 m/s 0.0 mm 26.7° 1014.2 hPa 2.0 m/s 0.0 mm 25.5° 1014.0 hPa 1.2 m/s
17:00 23.5° 1013.9 hPa 1.1 m/s 0.0 mm 26.1° 1012.6 hPa 3.6 m/s 50.6 mm 23.3° 1013.7 hPa 0.6 m/s 0.1 mm 23.4° 1014.0 hPa 0.6 m/s 0.0 mm 25.1° 1012.7 hPa 1.7 m/s
20:00 21.9° 1014.2 hPa 0.9 m/s 0.0 mm 22.6° 1013.1 hPa 1.1 m/s 52.0 mm 21.9° 1014.2 hPa 0.2 m/s 0.0 mm 22.6° 1014.2 hPa 0.9 m/s 0.0 mm 20.9° 1013.4 hPa 1.4 m/s
23:00 19.5° 1015.3 hPa 1.4 m/s 0.0 mm 21.5° 1012.0 hPa 3.1 m/s 52.6 mm 17.9° 1015.1 hPa 1.2 m/s 0.0 mm 19.9° 1016.8 hPa 0.5 m/s 0.0 mm 18.3° 1015.7 hPa 1.4 m/s
 05:42     20:47    Daglengte: 15:05 Woensdag 28 Jul
02:00 17.6° 1014.7 hPa 1.3 m/s 0.0 mm 18.2° 1014.7 hPa 1.1 m/s 53.0 mm 17.3° 1013.8 hPa 1.2 m/s 0.0 mm 17.5° 1017.1 hPa 1.1 m/s 0.0 mm 17.4° 1016.9 hPa 0.8 m/s
05:00 16.6° 1014.5 hPa 1.6 m/s 0.0 mm 17.1° 1012.7 hPa 2.8 m/s 53.1 mm 16.2° 1013.7 hPa 0.6 m/s 0.0 mm 16.5° 1017.7 hPa 1.4 m/s 0.0 mm 17.1° 1015.9 hPa 1.7 m/s
08:00 18.0° 1016.2 hPa 1.8 m/s 12.9 mm 21.1° 1014.3 hPa 4.3 m/s 53.1 mm 15.7° 1016.5 hPa 1.3 m/s 2.4 mm 18.8° 1017.2 hPa 1.4 m/s 0.0 mm 19.0° 1014.8 hPa 1.3 m/s
11:00 19.0° 1015.9 hPa 2.3 m/s 11.9 mm 21.4° 1014.6 hPa 3.1 m/s 53.2 mm 17.5° 1016.2 hPa 1.0 m/s 0.6 mm 23.0° 1014.5 hPa 2.4 m/s
14:00 19.9° 1015.4 hPa 2.3 m/s 11.7 mm 22.0° 1013.7 hPa 3.5 m/s 53.7 mm 19.1° 1015.7 hPa 2.1 m/s 1.0 mm 18.0° 1017.1 hPa 1.9 m/s
17:00 18.7° 1016.4 hPa 1.5 m/s 13.6 mm 19.1° 1013.9 hPa 1.4 m/s 59.0 mm 17.4° 1017.1 hPa 1.3 m/s 2.1 mm 17.0° 1017.6 hPa 1.2 m/s
20:00 18.0° 1016.2 hPa 1.3 m/s 16.0 mm 21.4° 1013.4 hPa 1.3 m/s 61.8 mm 16.9° 1016.4 hPa 1.2 m/s 0.1 mm 16.5° 1018.0 hPa 2.4 m/s
23:00 16.8° 1016.4 hPa 1.4 m/s 0.0 mm 18.9° 1013.9 hPa 1.4 m/s 62.0 mm 15.2° 1016.7 hPa 1.1 m/s 0.0 mm 14.5° 1018.0 hPa 2.6 m/s
 05:43     20:46    Daglengte: 15:03 Donderdag 29 Jul
02:00 16.1° 1015.3 hPa 1.9 m/s 0.0 mm 18.2° 1012.9 hPa 2.4 m/s 62.5 mm 14.3° 1016.7 hPa 1.2 m/s 0.0 mm 14.2° 1017.1 hPa 2.5 m/s
05:00 15.7° 1015.2 hPa 1.8 m/s 0.0 mm 18.3° 1011.8 hPa 2.8 m/s 62.6 mm 14.1° 1016.6 hPa 1.6 m/s 0.0 mm 14.0° 1016.9 hPa 1.9 m/s
08:00 18.1° 1015.4 hPa 1.5 m/s 0.0 mm 23.6° 1012.2 hPa 1.7 m/s 62.6 mm 17.1° 1016.2 hPa 1.0 m/s 0.0 mm 18.6° 1016.3 hPa 0.7 m/s
11:00 21.6° 1015.1 hPa 1.4 m/s 0.0 mm 26.0° 1012.0 hPa 2.0 m/s 62.6 mm 20.5° 1015.9 hPa 1.3 m/s 0.0 mm 24.9° 1015.3 hPa 1.1 m/s
14:00 22.8° 1014.3 hPa 2.0 m/s 0.0 mm 26.8° 1011.5 hPa 3.4 m/s 62.6 mm 21.8° 1015.0 hPa 1.7 m/s 0.0 mm 27.1° 1013.8 hPa 2.3 m/s
17:00 26.2° 1013.5 hPa 2.4 m/s 30.4 mm 26.2° 1013.5 hPa 2.4 m/s 30.4 mm
20:00 20.9° 1014.9 hPa 1.6 m/s 30.8 mm 20.9° 1014.9 hPa 1.6 m/s 30.8 mm
23:00 18.2° 1015.7 hPa 0.8 m/s 31.1 mm 18.2° 1015.7 hPa 0.8 m/s 31.1 mm
 05:44     20:44    Daglengte: 15:00 Vrijdag 30 Jul
02:00 17.6° 1015.2 hPa 1.7 m/s 32.9 mm 17.6° 1015.2 hPa 1.7 m/s 32.9 mm
05:00 17.4° 1014.4 hPa 1.0 m/s 34.9 mm 17.4° 1014.4 hPa 1.0 m/s 34.9 mm
08:00 18.9° 1015.1 hPa 0.6 m/s 36.2 mm 18.9° 1015.1 hPa 0.6 m/s 36.2 mm
11:00 20.1° 1014.7 hPa 1.4 m/s 36.7 mm 20.1° 1014.7 hPa 1.4 m/s 36.7 mm
14:00 25.0° 1012.5 hPa 1.4 m/s 37.4 mm 25.0° 1012.5 hPa 1.4 m/s 37.4 mm
17:00 26.2° 1011.4 hPa 1.2 m/s 38.1 mm 26.2° 1011.4 hPa 1.2 m/s 38.1 mm
20:00 22.2° 1010.9 hPa 0.7 m/s 38.1 mm 22.2° 1010.9 hPa 0.7 m/s 38.1 mm
23:00 19.5° 1012.0 hPa 1.8 m/s 38.8 mm 19.5° 1012.0 hPa 1.8 m/s 38.8 mm
 05:46     20:43    Daglengte: 14:57 Zaterdag 31 Jul
02:00 18.2° 1011.9 hPa 2.2 m/s 39.4 mm 18.2° 1011.9 hPa 2.2 m/s 39.4 mm
05:00 17.0° 1011.9 hPa 0.9 m/s 40.4 mm 17.0° 1011.9 hPa 0.9 m/s 40.4 mm
08:00 19.4° 1011.5 hPa 0.5 m/s 40.8 mm 19.4° 1011.5 hPa 0.5 m/s 40.8 mm
11:00 23.7° 1010.6 hPa 1.6 m/s 40.8 mm 23.7° 1010.6 hPa 1.6 m/s 40.8 mm
14:00 23.1° 1010.2 hPa 2.9 m/s 41.8 mm 23.1° 1010.2 hPa 2.9 m/s 41.8 mm
17:00 21.2° 1010.3 hPa 1.7 m/s 46.2 mm 21.2° 1010.3 hPa 1.7 m/s 46.2 mm
20:00 19.6° 1010.9 hPa 1.2 m/s 49.4 mm 19.6° 1010.9 hPa 1.2 m/s 49.4 mm
23:00 17.9° 1012.7 hPa 1.1 m/s 52.5 mm 17.9° 1012.7 hPa 1.1 m/s 52.5 mm
 05:47     20:42    Daglengte: 14:55 Zondag 01 Aug
02:00 17.4° 1011.9 hPa 0.8 m/s 56.0 mm 17.4° 1011.9 hPa 0.8 m/s 56.0 mm
05:00 16.4° 1011.0 hPa 1.4 m/s 67.7 mm 16.4° 1011.0 hPa 1.4 m/s 67.7 mm
08:00 14.6° 1011.4 hPa 1.7 m/s 72.7 mm 14.6° 1011.4 hPa 1.7 m/s 72.7 mm
11:00 14.4° 1010.9 hPa 1.9 m/s 74.8 mm 14.4° 1010.9 hPa 1.9 m/s 74.8 mm
14:00 13.4° 1013.3 hPa 2.1 m/s 82.2 mm 13.4° 1013.3 hPa 2.1 m/s 82.2 mm
17:00 13.6° 1014.3 hPa 1.8 m/s 89.2 mm 13.6° 1014.3 hPa 1.8 m/s 89.2 mm
20:00 13.7° 1013.2 hPa 1.8 m/s 89.5 mm 13.7° 1013.2 hPa 1.8 m/s 89.5 mm
23:00 11.0° 1015.5 hPa 2.5 m/s 89.5 mm 11.0° 1015.5 hPa 2.5 m/s 89.5 mm
 05:48     20:40    Daglengte: 14:52 Maandag 02 Aug
02:00 12.3° 1015.8 hPa 1.7 m/s 89.5 mm 12.3° 1015.8 hPa 1.7 m/s 89.5 mm
05:00 11.3° 1016.5 hPa 1.3 m/s 89.5 mm 11.3° 1016.5 hPa 1.3 m/s 89.5 mm
08:00 14.2° 1017.1 hPa 0.5 m/s 89.5 mm 14.2° 1017.1 hPa 0.5 m/s 89.5 mm
11:00 19.1° 1016.7 hPa 0.9 m/s 89.5 mm 19.1° 1016.7 hPa 0.9 m/s 89.5 mm
14:00 19.5° 1016.4 hPa 2.3 m/s 89.9 mm 19.5° 1016.4 hPa 2.3 m/s 89.9 mm
20:00 16.3° 1017.5 hPa 0.6 m/s 90.3 mm 16.3° 1017.5 hPa 0.6 m/s 90.3 mm
 05:50     20:39    Daglengte: 14:49 Dinsdag 03 Aug
02:00 15.2° 1018.4 hPa 1.6 m/s 90.3 mm 15.2° 1018.4 hPa 1.6 m/s 90.3 mm
08:00 17.3° 1018.0 hPa 0.4 m/s 90.3 mm 17.3° 1018.0 hPa 0.4 m/s 90.3 mm
14:00 19.6° 1018.2 hPa 1.2 m/s 93.6 mm 19.6° 1018.2 hPa 1.2 m/s 93.6 mm
20:00 16.8° 1019.6 hPa 0.7 m/s 95.6 mm 16.8° 1019.6 hPa 0.7 m/s 95.6 mm
 05:51     20:37    Daglengte: 14:46 Woensdag 04 Aug
02:00 13.6° 1020.4 hPa 2.4 m/s 95.6 mm 13.6° 1020.4 hPa 2.4 m/s 95.6 mm
08:00 17.5° 1018.8 hPa 2.0 m/s 95.6 mm 17.5° 1018.8 hPa 2.0 m/s 95.6 mm
14:00 27.0° 1015.7 hPa 1.5 m/s 95.6 mm 27.0° 1015.7 hPa 1.5 m/s 95.6 mm
20:00 21.3° 1015.0 hPa 0.4 m/s 95.6 mm 21.3° 1015.0 hPa 0.4 m/s 95.6 mm
 05:52     20:36    Daglengte: 14:44 Donderdag 05 Aug
02:00 16.9° 1016.5 hPa 2.7 m/s 96.7 mm 16.9° 1016.5 hPa 2.7 m/s 96.7 mm
08:00 18.7° 1015.1 hPa 1.8 m/s 97.3 mm 18.7° 1015.1 hPa 1.8 m/s 97.3 mm
14:00 23.1° 1013.6 hPa 1.3 m/s 1.3 mm
20:00 17.8° 1012.9 hPa 0.3 m/s 3.3 mm
 05:53     20:34    Daglengte: 14:41 Vrijdag 06 Aug
02:00 14.5° 1013.2 hPa 1.3 m/s 2.6 mm
08:00 15.6° 1011.8 hPa 1.2 m/s 1.6 mm
14:00 19.9° 1010.2 hPa 1.1 m/s 2.3 mm
20:00 16.0° 1010.0 hPa 0.8 m/s 4.1 mm
 05:55     20:33    Daglengte: 14:38 Zaterdag 07 Aug
02:00 13.6° 1011.1 hPa 1.1 m/s 3.0 mm
08:00 14.3° 1011.0 hPa 1.1 m/s 2.3 mm
14:00 18.0° 1010.4 hPa 1.8 m/s 3.1 mm
20:00 15.1° 1011.2 hPa 1.0 m/s 3.4 mm
 05:56     20:31    Daglengte: 14:35 Zondag 08 Aug
02:00 12.2° 1013.5 hPa 1.6 m/s 2.9 mm
08:00 13.3° 1014.3 hPa 1.2 m/s 2.8 mm
14:00 18.2° 1013.9 hPa 1.7 m/s 2.3 mm
20:00 14.7° 1015.2 hPa 0.8 m/s 2.7 mm
 05:57     20:29    Daglengte: 14:32 Maandag 09 Aug
02:00 12.0° 1017.6 hPa 1.6 m/s 2.2 mm
08:00 13.9° 1017.6 hPa 1.2 m/s 1.2 mm
14:00 20.0° 1016.7 hPa 1.4 m/s 1.5 mm
20:00 16.0° 1017.3 hPa 0.3 m/s 1.2 mm
 05:59     20:28    Daglengte: 14:29 Dinsdag 10 Aug
02:00 12.9° 1019.4 hPa 1.4 m/s 0.9 mm
08:00 14.4° 1019.4 hPa 0.9 m/s 0.7 mm
14:00 21.1° 1018.0 hPa 1.6 m/s 0.4 mm
FMI Hirlam - 7.5 km EWN WRFDA - 12 km DWD ICON - 7 km GFS - 25 km Basiskaart






























































Updatetijd (Europe/Amsterdam) Resolutie Lengte Stap
FMI Hirlam 14:00, 20:00, 02:00, 08:00 7.5 km 49h 1h
EWN WRFDA 16:30, 22:30, 04:30, 10:30 12 km 73h 1h
DWD ICON 11:45, 17:45, 23:45, 05:45 7 km 75h 1h
GFS 14:15, 20:15, 02:15, 08:15 25 km 237h 3h
30+ mm
25-30 mm
20-25 mm
15-20 mm
10-15 mm
6-10 mm
4-6 mm
2-4 mm
1-2 mm
0.5-1 mm
0.2-0.5 mm
0.1-0.2 mm
30+ mm
25-30 mm
20-25 mm
15-20 mm
10-15 mm
6-10 mm
4-6 mm
2-4 mm
1-2 mm
0.5-1 mm
0.2-0.5 mm
0.1-0.2 mm
Sneeuwval
Natte sneeuw
Hagel
Vorst
30+ mm
25-30 mm
20-25 mm
15-20 mm
10-15 mm
6-10 mm
4-6 mm
2-4 mm
1-2 mm
0.5-1 mm
0.2-0.5 mm
0.1-0.2 mm
Sneeuwval
Natte sneeuw
Hagel
Vorst
Onweer
50 mm
40 mm
30 mm
26 mm
22 mm
18 mm
14 mm
10 mm
9 mm
8 mm
7 mm
6 mm
5 mm
4.5 mm
4 mm
3.5 mm
3 mm
2.5 mm
2 mm
1.5 mm
1 mm
0.8 mm
0.6 mm
0.4 mm
0.2 mm
0.05 mm
35°
30°
25°
20°
15°
10°
-5°
-10°
-15°
-20°
-25°
-30°
-35°
33> m/s
29 m/s
25 m/s
21 m/s
17 m/s
14 m/s
11 m/s
8 m/s
5 m/s
3 m/s
0 m/s
2600 J/kg
2400 J/kg
2200 J/kg
2000 J/kg
1800 J/kg
1600 J/kg
1400 J/kg
1200 J/kg
1000 J/kg
800 J/kg
600 J/kg
400 J/kg
200 J/kg
<
70 dBZ
65 dBZ
60 dBZ
55 dBZ